Torna al catalogo

KL-ALPHA B

AttivoScienzaPO
NORAD 44786·PAYLOAD·🇩🇪 Germany

Lanciato Nov 17, 2019 da Jiuquan Satellite Launch Center

Loading…

Prossimi Passaggi (prossime 24 ore)

TLE

AggiornatoSource: Space-Track

Epoca: Sep 14, 2026, 13:28 UTC

1 44786U 19077B   26257.56160912 -.00000026  00000-0 -54134-4 0  9996
2 44786  88.9175 210.2680 0024173 249.2581 110.5982 13.56008694337298

Traccia KL-ALPHA B in tempo reale con AllMySat

Download on the App Store